Location: ??????
(56.0120°N, 39.1740°E)
Time: 06:32:59
(UTC+00:00)

Cosmos 2151 - Pass Details

Date: 14 April 2026
Orbit: 558 x 574 km, 82.5° (Epoch: 10 May)

Event Time Altitude Azimuth Distance (km) Brightness Sun altitude
Rises 22:04:48 0° 348° (NNW) 2,801 7.5 -23.8°
Reaches altitude 10° 22:07:00 10° 350° (N) 1,898 6.5 -23.7°
Maximum altitude 22:11:12 75° 76° (ENE) 603 2.9 -23.6°
Enters shadow 22:11:16 74° 87° (E) 604 2.9 -23.6°
